Weather History for KFLO - June, 2013

Change the Weather History Date:

Sunday, June 23, 2013

  Actual Average Record
Temperature  
Mean Temperature 82 °F 80 °F  
Max Temperature 91 °F 90 °F 101 °F (1954)
Min Temperature 72 °F 70 °F 57 °F (1972)
Degree Days  
Heating Degree Days 0 0  
Month to date heating degree days 0 0  
Since 1 June heating degree days 0 0  
Since 1 July heating degree days 2335 2523  
Cooling Degree Days 17 15  
Month to date cooling degree days 307 291  
Year to date cooling degree days 574 598  
Since 1 June cooling degree days 307 291  
Growing Degree Days 31 (Base 50)    
Moisture  
Dew Point 72 °F    
Average Humidity 73    
Maximum Humidity 93    
Minimum Humidity 52    
Precipitation  
Precipitation T in 0.15 in 0.88 in (1952)
Month to date precipitation 6.34 3.57  
Year to date precipitation 25.17 18.93  
Sea Level Pressure  
Sea Level Pressure 30.17 in    
Wind  
Wind Speed 4 mph (South)    
Max Wind Speed 6 mph    
Max Gust Speed 7 mph    
Visibility 10 miles    
Events Thunderstorm    
T = Trace of Precipitation, MM = Missing Value Source: NWS Daily Summary

Daily Weather History Graph

Daily Weather History Graph

Search for Another Location

Airport or City:

Trip Planner

Search our weather history database for the weather conditions in past years. The results will help you decide how hot, cold, wet, or windy it might be!

Date:

Astronomy

Jun. 23, 2013 Rise Set
Actual Time 6:08 AM EDT 8:34 PM EDT
Civil Twilight 5:38 AM EDT 9:03 PM EDT
Nautical Twilight 5:02 AM EDT 9:39 PM EDT
Astronomical Twilight 4:22 AM EDT 10:19 PM EDT
Moon 8:48 PM EDT (6/23) 6:20 AM EDT (6/23)
Length of Visible Light 15h 24m
Length of Day
14h 26m
Full, 100% of the Moon is Illuminated
Jun 23
Full
Jun 30
Last Quarter
Jul 8
New
Jul 15
First Quarter
Jul 22
Full

Hourly Weather History & Observations

Time (EDT) Temp. Heat Index Dew Point Humidity Pressure Visibility Wind Dir Wind Speed Gust Speed Precip Events Conditions
12:53 AM 75.9 °F - 71.1 °F 85% 30.15 in 10.0 mi SSE 3.5 mph - N/A   Clear
1:53 AM 75.0 °F - 71.1 °F 87% 30.15 in 10.0 mi Calm Calm - N/A   Partly Cloudy
2:53 AM 75.0 °F - 71.1 °F 87% 30.15 in 10.0 mi SSE 3.5 mph - N/A   Mostly Cloudy
3:53 AM 73.0 °F - 71.1 °F 93% 30.14 in 10.0 mi SE 4.6 mph - N/A   Scattered Clouds
4:53 AM 73.0 °F - 71.1 °F 93% 30.14 in 10.0 mi South 4.6 mph - N/A   Clear
5:53 AM 72.0 °F - 70.0 °F 93% 30.15 in 10.0 mi NW 3.5 mph - N/A   Clear
6:08 AM 73.4 °F - 71.6 °F 94% 30.16 in 10.0 mi Calm Calm - N/A   Mostly Cloudy
6:33 AM 73.4 °F - 71.6 °F 94% 30.17 in 10.0 mi Calm Calm - N/A   Mostly Cloudy
6:53 AM 73.9 °F - 71.1 °F 91% 30.17 in 10.0 mi Calm Calm - N/A   Mostly Cloudy
7:03 AM 73.4 °F - 71.6 °F 94% 30.17 in 10.0 mi SE 3.5 mph - N/A   Mostly Cloudy
7:25 AM 73.4 °F - 71.6 °F 94% 30.18 in 10.0 mi SE 3.5 mph - N/A   Scattered Clouds
7:53 AM 75.0 °F - 72.0 °F 90% 30.18 in 10.0 mi Calm Calm - N/A   Scattered Clouds
8:53 AM 78.1 °F - 73.0 °F 84% 30.21 in 10.0 mi Calm Calm - N/A   Clear
9:53 AM 81.0 °F 85.2 °F 72.0 °F 74% 30.20 in 10.0 mi WSW 4.6 mph - N/A   Mostly Cloudy
10:53 AM 82.9 °F 87.5 °F 71.1 °F 67% 30.20 in 10.0 mi South 5.8 mph - N/A   Mostly Cloudy
11:00 AM 84.2 °F 89.6 °F 71.6 °F 66% 30.21 in 10.0 mi Variable 6.9 mph - N/A   Mostly Cloudy
11:35 AM 84.2 °F 88.4 °F 69.8 °F 62% 30.20 in 10.0 mi Variable 3.5 mph - N/A   Mostly Cloudy
11:53 AM 84.9 °F 90.7 °F 72.0 °F 65% 30.19 in 10.0 mi West 4.6 mph - N/A   Mostly Cloudy
12:53 PM 84.9 °F 89.4 °F 70.0 °F 61% 30.18 in 10.0 mi WSW 5.8 mph - N/A   Mostly Cloudy
1:00 PM 84.2 °F 88.4 °F 69.8 °F 62% 30.19 in 10.0 mi Variable 3.5 mph - N/A   Mostly Cloudy
1:53 PM 88.0 °F 92.9 °F 70.0 °F 55% 30.16 in 10.0 mi South 5.8 mph - N/A   Partly Cloudy
2:53 PM 89.1 °F 95.0 °F 71.1 °F 55% 30.14 in 10.0 mi Calm Calm - N/A   Partly Cloudy
3:53 PM 90.0 °F 94.5 °F 69.1 °F 50% 30.13 in 10.0 mi SSW 5.8 mph - N/A   Clear
4:53 PM 89.1 °F 94.1 °F 70.0 °F 53% 30.12 in 10.0 mi ESE 6.9 mph - N/A Thunderstorm Thunderstorm
5:53 PM 79.0 °F - 71.1 °F 77% 30.14 in 10.0 mi SSE 6.9 mph - 0.00 in   Clear
6:44 PM 78.8 °F - 71.6 °F 78% 30.15 in 10.0 mi SSE 3.5 mph - N/A Thunderstorm Thunderstorm
6:53 PM 80.1 °F 84.2 °F 73.0 °F 79% 30.14 in 10.0 mi SSE 4.6 mph - N/A   Partly Cloudy
7:53 PM 80.1 °F 85.1 °F 75.0 °F 85% 30.15 in 10.0 mi South 4.6 mph - N/A   Mostly Cloudy
8:53 PM 78.1 °F - 73.0 °F 84% 30.16 in 10.0 mi SSE 4.6 mph - N/A   Clear
9:53 PM 78.1 °F - 73.9 °F 87% 30.19 in - ESE 4.6 mph - N/A   Unknown
10:53 PM 77.0 °F - 73.0 °F 88% 30.19 in 10.0 mi Calm Calm - N/A   Partly Cloudy
11:17 PM 75.2 °F - 73.4 °F 94% 30.19 in 10.0 mi Calm Calm - N/A   Mostly Cloudy
11:42 PM 75.2 °F - 73.4 °F 94% 30.19 in 10.0 mi Calm Calm - N/A   Scattered Clouds
11:53 PM 75.0 °F - 72.0 °F 90% 30.18 in 10.0 mi SSE 4.6 mph - N/A   Clear